This demonstration page uses our WeatherBlox Daily Observations layout. Learn more.

Left ArrowRight Arrow

39.51506, -84.39828

Hourly Observations for October 24, 2020

Temp ( °F °C ) Dew Point ( °F °C ) Humidity (%) Winds ( mph kmh ) Pressure ( in mb ) Visibility ( mi km ) Precip ( " mm )
12:15 am 00:15 Cloudy 51 10.4 47 8.4 88 88 N 9 15 30.12 1020 10 16.0934 0 0
12:35 am 00:35 Cloudy 50 10.1 47 8.4 89 89 N 13 20 30.12 1020 10 16.0934 0 0
12:55 am 00:55 Cloudy 50 9.9 46 8 88 88 N 13 20 30.13 1020 10 16.0934 0 0
1:15 am 01:15 Cloudy 49 9.7 46 7.6 87 87 N 7 11 30.13 1020 10 16.0934 0 0
1:35 am 01:35 Cloudy 49 9.7 46 7.7 87 87 N 6 9 30.14 1021 10 16.0934 0 0
1:55 am 01:55 Cloudy 49 9.7 45 7.4 86 86 NNE 9 15 30.15 1021 10 16.0934 0 0
2:15 am 02:15 Cloudy 49 9.5 44 6.9 84 84 N 7 11 30.15 1021 10 16.0934 0 0
2:35 am 02:35 Cloudy 49 9.3 44 6.6 83 83 NNE 13 20 30.15 1021 10 16.0934 0 0
2:55 am 02:55 Cloudy 48 8.9 44 6.7 86 86 NNE 9 15 30.17 1022 10 16.0934 0 0
3:15 am 03:15 Cloudy 48 8.8 42 5.8 82 82 NE 12 19 30.17 1022 10 16.0934 0 0
3:35 am 03:35 Cloudy 47 8.6 42 5.4 81 81 NNE 14 22 30.17 1022 10 16.0934 0 0
3:55 am 03:55 Cloudy 47 8.5 41 5.1 79 79 NNE 16 26 30.18 1022 10 16.0934 0 0
4:15 am 04:15 Cloudy 47 8.4 40 4.6 77 77 NNE 9 15 30.18 1022 10 16.0934 0 0
4:35 am 04:35 Cloudy 47 8.3 39 4 75 75 NNE 15 24 30.18 1022 10 16.0934 0 0
4:55 am 04:55 Cloudy 47 8.2 39 3.9 75 75 NNE 9 15 30.19 1022 10 16.0934 0 0
5:15 am 05:15 Cloudy 46 7.9 39 4.1 77 77 NNE 8 13 30.19 1022 10 16.0934 0 0
5:35 am 05:35 Cloudy 46 7.9 40 4.4 79 79 NNE 15 24 30.2 1023 10 16.0934 0 0
5:55 am 05:55 Cloudy 46 7.5 40 4.6 82 82 NE 10 17 30.21 1023 10 16.0934 0 0
6:15 am 06:15 Clear 44 6.9 39 3.9 81 81 NNE 6 9 30.22 1023 10 16.0934 0 0
6:35 am 06:35 Clear 44 6.6 38 3.2 79 79 NNE 12 19 30.22 1023 10 16.0934 0 0
6:55 am 06:55 Clear 43 6.1 38 3.5 84 84 NE 7 11 30.23 1024 10 16.0934 0 0
7:15 am 07:15 Clear 42 5.8 38 3.2 84 84 NNE 9 15 30.23 1024 10 16.0934 0 0
7:35 am 07:35 Clear 42 5.4 37 3 85 85 NE 6 9 30.23 1024 10 16.0934 0 0
8:00 am 08:00 Sunny 41 5.1 37 2.9 86 86 NNE 7 11 30.22 1023 10 16.0934 0 0
8:15 am 08:15 Sunny 41 5 37 2.7 85 85 NNE 8 13 30.23 1024 10 16.0934 0 0
8:35 am 08:35 Sunny 41 5 37 2.6 85 85 NE 8 13 30.23 1024 10 16.0934 0 0
8:55 am 08:55 Sunny 41 5.1 37 2.5 83 83 NE 5 7 30.24 1024 10 16.0934 0 0
9:15 am 09:15 Sunny 42 5.6 37 2.8 82 82 NE 7 11 30.25 1024 10 16.0934 0 0
9:35 am 09:35 Sunny 43 5.9 37 2.9 81 81 NE 12 19 30.25 1024 10 16.0934 0 0
9:55 am 09:55 Sunny 44 6.4 37 2.9 79 79 NE 12 19 30.26 1025 10 16.0934 0 0
10:15 am 10:15 Partly Cloudy 44 6.4 37 2.7 77 77 ENE 13 20 30.26 1025 10 16.0934 0 0
10:35 am 10:35 Cloudy 43 6.3 37 2.6 77 77 ENE 12 19 30.26 1025 10 16.0934 0 0
10:55 am 10:55 Cloudy 44 6.5 37 2.5 76 76 E 13 20 30.26 1025 10 16.0934 0 0
11:15 am 11:15 Cloudy 43 6.2 36 2.1 75 75 ENE 13 20 30.26 1025 10 16.0934 0 0
11:35 am 11:35 Cloudy 44 6.5 36 2.3 75 75 ENE 12 19 30.26 1025 10 16.0934 0 0
11:55 am 11:55 Cloudy 44 6.8 36 2.4 74 74 NNE 10 17 30.25 1024 10 16.0934 0 0
12:15 pm 12:15 Mostly Cloudy 45 7 36 2 71 71 NE 7 11 30.25 1024 10 16.0934 0 0
12:35 pm 12:35 Partly Cloudy 47 8.5 37 2.5 66 66 E 12 19 30.23 1024 10 16.0934 0 0
12:55 pm 12:55 Partly Cloudy 47 8.6 37 2.5 66 66 E 10 17 30.22 1023 10 16.0934 0 0
1:10 pm 13:10 Partly Cloudy 49 9.5 38 3.2 65 65 ENE 9 15 30.22 1023 10 16.0934 0 0
1:35 pm 13:35 Partly Cloudy 48 8.9 37 2.8 66 66 NE 9 15 30.21 1023 10 16.0934 0 0
1:55 pm 13:55 Sunny 49 9.2 37 2.9 65 65 ENE 10 17 30.2 1023 10 16.0934 0 0
2:15 pm 14:15 Partly Cloudy 49 9.4 37 2.9 64 64 E 12 19 30.2 1023 10 16.0934 0 0
2:35 pm 14:35 Partly Cloudy 49 9.2 36 2.4 63 63 NNE 8 13 30.19 1022 10 16.0934 0 0
2:55 pm 14:55 Sunny 50 10 37 2.9 62 62 E 8 13 30.18 1022 10 16.0934 0 0
3:15 pm 15:15 Partly Cloudy 50 9.9 37 2.6 61 61 ESE 10 17 30.16 1021 10 16.0934 0 0
3:35 pm 15:35 Sunny 51 10.3 37 2.7 60 60 E 10 17 30.17 1022 10 16.0934 0 0
3:55 pm 15:55 Partly Cloudy 50 10.2 37 2.6 60 60 E 6 9 30.17 1022 10 16.0934 0 0
4:15 pm 16:15 Mostly Cloudy 50 10 38 3.1 63 63 E 13 20 30.16 1021 10 16.0934 0 0
4:35 pm 16:35 Sunny 50 10 37 2.7 61 61 ENE 9 15 30.15 1021 10 16.0934 0 0
4:55 pm 16:55 Sunny 50 10.2 37 2.9 61 61 ENE 9 15 30.15 1021 10 16.0934 0 0
5:15 pm 17:15 Sunny 50 9.9 37 2.7 61 61 ENE 7 11 30.15 1021 10 16.0934 0 0
5:35 pm 17:35 Partly Cloudy 50 9.8 37 2.8 62 62 E 7 11 30.15 1021 10 16.0934 0 0
5:55 pm 17:55 Sunny 50 9.8 37 2.9 62 62 E 8 13 30.15 1021 10 16.0934 0 0
6:15 pm 18:15 Sunny 49 9.6 37 2.5 62 62 ESE 7 11 30.15 1021 10 16.0934 0 0
6:35 pm 18:35 Sunny 48 9.1 37 3 66 66 E 8 13 30.15 1021 10 16.0934 0 0
6:55 pm 18:55 Clear 47 8.4 38 3.2 70 70 E 5 7 30.16 1021 10 16.0934 0 0
7:15 pm 19:15 Clear 47 8.2 38 3.4 72 72 Calm 30.16 1021 10 16.0934 0 0
7:35 pm 19:35 Mostly Cloudy 44 6.5 40 4.6 88 88 Calm 30.17 1022 10 16.0934 0 0
7:55 pm 19:55 Cloudy 45 7.1 40 4.3 83 83 Calm 30.17 1022 10 16.0934 0 0
8:15 pm 20:15 Cloudy 46 7.8 40 4.5 80 80 E 3 6 30.17 1022 10 16.0934 0 0
8:35 pm 20:35 Mostly Cloudy 46 7.7 39 3.9 77 77 E 8 13 30.17 1022 10 16.0934 0 0
8:55 pm 20:55 Clear 46 7.7 38 3.5 75 75 E 10 17 30.17 1022 10 16.0934 0 0
9:15 pm 21:15 Clear 46 7.5 38 3.1 74 74 E 9 15 30.18 1022 10 16.0934 0 0
9:35 pm 21:35 Clear 44 6.8 37 3 77 77 E 9 15 30.18 1022 10 16.0934 0 0
9:55 pm 21:55 Clear 44 6.7 37 3 78 78 E 9 15 30.18 1022 10 16.0934 0 0
10:15 pm 22:15 Partly Cloudy 44 6.7 37 2.7 76 76 E 7 11 30.18 1022 10 16.0934 0 0
10:35 pm 22:35 Mostly Cloudy 43 6.3 37 2.9 79 79 ENE 5 7 30.19 1022 10 16.0934 0 0
10:55 pm 22:55 Mostly Cloudy 43 6.2 38 3.2 81 81 ENE 5 7 30.19 1022 10 16.0934 0 0
11:15 pm 23:15 Cloudy 44 6.6 38 3.2 79 79 ENE 5 7 30.19 1022 10 16.0934 0 0
11:35 pm 23:35 Cloudy 44 6.5 38 3.4 81 81 ENE 7 11 30.18 1022 10 16.0934 0 0
11:55 pm 23:55 Cloudy 44 6.7 37 3 78 78 E 9 15 30.18 1022 10 16.0934 0 0

Powered by AerisWeather